Preview of NWS' New Version of Forecast
This preview is not operational and should not be used for support decisions.
Latest weather observations around

Leadville, Lake County Airport (KLXV)

Using English Units (Switch to International System of Units)
Date/ Time (MDT) Wind (mph) Vis. (mi) Weather Sky Cond. Temp (°F) Rel. Humidity Wind Chill (°F) Heat Index (°F) Pressure Precip. (in)
Air Dwpt 6 hour Altimeter (inHg) Sea level (inHg) 1 hr 3 hr 6 hr
Max Min
Sep 19 16:53 SSW 9   Mostly Clear FEW100 65 25     22%     30.2 29.74      
Sep 19 15:53 SW 15   Partly Cloudy SCT090 65 25     22%     30.21 29.74      
Sep 19 14:53 SW 16   Mostly Clear FEW085 66 26     22%     30.24 29.78      
Sep 19 13:53 SSW 14   Mostly Clear FEW085 65 28     25%     30.26 29.8      
Sep 19 12:53     Clear CLR 65 27     24%     30.28 29.78      
Sep 19 11:53 S 17 5 Haze OVC075 63 28     27%     30.29 29.81      
Sep 19 10:53 S 13 10 Clear CLR 59 29     32%     30.31 29.87      
Sep 19 09:53 S 11 7 Clear CLR 55 32     41%     30.33 29.88      
Sep 19 09:13 SSW 5 8 Clear CLR 50 32     50%     30.34        
Sep 19 09:03 S 5 1.5 Haze CLR 48 32     54% 46   30.35        
Sep 19 08:53 SSW 3 4 Haze CLR 47 31     53% 46   30.35 29.95      
Sep 19 08:07 Calm 3 Haze CLR 39 29     67%     30.35        
Sep 19 07:53 Calm 1.75 Haze CLR 36 27     70%     30.34 30.01      
Sep 19 07:44 Calm 2.5 Haze CLR 33 26     75%     30.34        
Sep 19 06:53 Calm 6 Haze CLR 30 25     81%     30.34 29.98      
Sep 19 05:53 Calm 10 Clear CLR 35 28     75%     30.34 29.94      
Sep 19 04:53 SE 3 10 Clear CLR 37 28     70% 35   30.34 29.91      
Sep 19 03:53 Calm 10 Clear CLR 39 28     64%     30.34 29.89      
Sep 19 02:53 Calm 10 Clear CLR 35 26     69%     30.35 29.92      
Sep 19 01:53 ESE 3 10 Clear CLR 37 27     67% 35   30.36 29.92      
Sep 19 00:53 Calm 10 Clear CLR 42 28     57%     30.36 29.9      
Sep 18 23:53 S 5 10 Clear CLR 42 28     57% 39   30.37 29.91      
Sep 18 22:53 Calm 10 Clear CLR 40 26     57%     30.36 29.94      
Sep 18 21:53 E 6 10 Clear CLR 46 26     45% 43   30.36 29.95      
Sep 18 20:53 ENE 7 10 Clear CLR 46 25     43% 42   30.35 29.95      
Notice The following observation data may not be complete
Sep 18 19:53 Calm 10 Mostly Clear FEW095   26      %     30.33 29.97      
Sep 18 18:53 Calm 10 Mostly Clear FEW100 57 28     33%     30.32 29.96      
Sep 18 17:53 N 7 10 Mostly Cloudy SCT090 BKN110 59 28     31%     30.32 29.93      
Sep 18 16:53 NW 3 10 Mostly Cloudy SCT100 BKN110 60 28     29%     30.31 29.91      
Sep 18 16:31 N 6 10 Partly Cloudy FEW090 SCT110 62 28     27%     30.31        
Sep 18 16:21 NW 6 1.25 Haze FEW001 SCT100 62 27     26%     30.31        
Sep 18 16:00 SW 14 10 Mostly Cloudy BKN100 65 24     21%     30.31        
Sep 18 15:53 SSW 8 2 Haze BKN100 63 22     21%     30.31 29.86      
Sep 18 15:45 WSW 11 1.5 Haze SCT110 65 24     21%     30.31        
Sep 18 14:53 WSW 11 4 Haze BKN090 OVC110 62 23     22%     30.31 29.87      
Sep 18 13:53 S 17 4 Haze BKN100 63 24     23%     30.32 29.88      
Sep 18 12:53 SSW 15 5 Haze FEW070 SCT100 61 28     28%     30.35 29.91      
Sep 18 12:17 SSW 14 6 Haze FEW100 61 30     31%     30.35        
Sep 18 12:04 SW 15 2 Haze CLR 62 30     30%     30.35        
Sep 18 11:53 S 13 3 Haze FEW060 60 30     32%     30.35 29.9      
Sep 18 10:58 S 9 1.75 Haze FEW070 57 31     37%     30.37        
Sep 18 10:53 6 10 Clear CLR 58 31     36%     30.37 29.89      
Sep 18 09:53 S 5 10 Mostly Clear FEW060 49 34     56% 47   30.38 29.98      
Sep 18 07:53 Calm 8 Mostly Cloudy BKN060 40 31     70%     30.37 29.98      
Sep 18 07:45 ENE 3 3 Haze BKN060 38 31     76% 36   30.37        
Sep 18 07:20 NNW 3 1.75 Haze FEW060 34 29     82% 31   30.36        
Sep 18 06:53 Calm 10 Clear CLR 31 27     85%     30.35 30.01      
Sep 18 05:53 Calm 10 Mostly Clear FEW065 32 27     81%     30.35 29.98      
Sep 18 04:53 NE 5 10 Mostly Clear FEW055 33 28     82% 29   30.35 29.98      
Sep 18 03:53 ENE 3 10 Mostly Cloudy BKN065 37 30     76% 35   30.35 29.93      
Sep 18 02:53 SW 5 10 Mostly Clear FEW060 37 30     76% 33   30.35 29.93      
Sep 18 01:53 NNE 5 10 Clear CLR 37 30     76% 33   30.35 29.95      
Sep 18 00:53 Calm 10 Clear CLR 38 30     73%     30.34 29.94      
Sep 17 23:53 E 5 10 Partly Cloudy SCT060 42 31     64% 39   30.34 29.91      
Sep 17 22:53 NE 5 10 Cloudy OVC060 47 32     56% 45   30.34 29.88      
Sep 17 21:53 ENE 5 10 Mostly Clear FEW065 45 30     56% 43   30.33 29.9      
Sep 17 20:53 NNE 3 10 Clear   48 30     50% 47   30.32 29.93      
Sep 17 19:53 Calm 10 Partly Cloudy SCT075 52 29     41%     30.31 29.89      
Sep 17 18:53 3 6 Haze SCT080 55 29     37%     30.3 29.89      
Sep 17 17:53 W 7 10 Mostly Clear FEW080 57 30     36%     30.29 29.87      
Sep 17 16:53 SW 5 10 Mostly Cloudy BKN075 57 30     36%     30.29 29.87      
Sep 17 16:26 WSW 9 10 Mostly Cloudy SCT060 BKN080 58 31     36%     30.28        
Sep 17 16:09 SW 10 1.75 Haze BKN065 OVC080 57 31     37%     30.28        
Sep 17 15:56 W 10 4 Haze BKN070 58 30     34%     30.28        
Sep 17 15:53 WSW 13 1.75 Haze SCT070 58 30     34%     30.28 29.83      
Sep 17 15:46 SW 10 1.75 Haze SCT075 58 30     34%     30.28        
Sep 17 14:53 SSW 15 3 Haze FEW043 BKN060 OVC075 58 33     39%     30.29 29.83      
Sep 17 14:28 6 4 Haze BKN055 BKN070 56 32     40%     30.29        
Sep 17 14:20 Calm 2 Haze BKN060 OVC070 55 32     41%     30.29        
Sep 17 14:00 SSW 10 9 Mostly Cloudy FEW060 SCT075 BKN090 55 32     41%     30.3        
Sep 17 13:53 S 15 2.5 Haze FEW023 FEW065 BKN095 57 33     40%     30.3 29.86      
Sep 17 13:42 S 13 6 Haze FEW046 SCT060 BKN095 56 34     43%     30.3        
Sep 17 13:25   2.5 Haze BKN055 OVC070 55 35     47%     30.3        
Sep 17 12:53 SW 10 3 Haze BKN055 OVC065 55 33     43%     30.31 29.89      
Sep 17 12:41 S 15 2.5 Haze BKN065 BKN100 56 31     38%     30.29        
Sep 17 12:09 SW 15 9 Mostly Cloudy FEW017 SCT065 BKN075 56 31     38%     30.29        
Sep 17 12:02 WSW 11 2.5 Haze FEW022 BKN070 BKN080 56 31     38%     30.3        
Sep 17 11:53   3 Haze FEW037 SCT055 BKN075 55 34     45%     30.31 29.88      
Sep 17 11:48 6 2.5 Haze FEW014 BKN050 BKN065 55 34     44%     30.31        
Sep 17 11:22 SW 14 4 Haze FEW040 BKN055 OVC070 54 32     43%     30.32        
Sep 17 11:06   2.5 Haze FEW019 BKN070 55 31     40%     30.31        
Sep 17 10:53 3 8 Mostly Cloudy BKN065 BKN080 55 31     40%     30.31 29.86      
Sep 17 09:53 N 9 10 Partly Cloudy FEW048 SCT065 52 34     50%     30.33 29.91      
Sep 17 08:53 E 5 8 Clear CLR 43 33     68% 40   30.31 29.92      
Sep 17 08:37 Calm 9 Mostly Clear FEW001 42 31     64%     30.32        
Sep 17 08:30 Calm 3 Haze CLR 41 31     67%     30.32        
Sep 17 08:05 S 5 1.25 Haze CLR 43 32     65% 40   30.31        
Sep 17 07:53 NE 6 2 Haze CLR 43 31     62% 39   30.31 29.88      
Sep 17 06:53 NE 5 10 Mostly Cloudy BKN065 38 29     70% 34   30.31 29.9      
Sep 17 05:53 E 5 10 Clear CLR 38 28     67% 34   30.3 29.84      
Sep 17 04:53 SE 6 10 Clear CLR 39 29     67% 35   30.29 29.85      
Sep 17 03:53 Calm 10 Clear CLR 41 29     62%     30.3 29.83      
Sep 17 02:53 3 10 Partly Cloudy SCT060 43 30     60% 41   30.31 29.85      
Sep 17 01:53 ENE 5 10 Clear CLR 41 30     65% 38   30.32 29.86      
Sep 17 00:53 3 10 Clear CLR 41 31     67% 39   30.31 29.85      
Sep 16 23:53 ENE 6 10 Clear CLR 42 32     67% 38   30.31 29.87      
Sep 16 22:53 ENE 3 10 Mostly Clear FEW100 45 33     63% 44   30.32 29.88      
Sep 16 21:53 ENE 6 10 Clear CLR 44 32     62% 41   30.33 29.91      
Sep 16 20:53 NE 5 10 Clear CLR 49 33     54% 47   30.32 29.9      
Sep 16 19:53 N 6 10 Clear CLR 54 34     47%     30.31 29.87      
May 15 03:53 Calm 10 Clear CLR 29 18     63%     30.29 29.94      
May 14 20:53 ENE 5 10 Clear CLR 42 13     30% 39   30.23 29.89      
May 14 16:53 W 15 10 Clear CLR 57 6     13%     30.16 29.8      
May 14 03:53 SW 3 10 Clear   30 18     60% 27   30.19 29.81      
May 12 21:53 SSE 6 10 Clear CLR 51        %     30.13 29.65      
May 12 09:53 S 11 10 Mostly Clear FEW085 53 18     25%     30.09 29.64      
May 12 06:53 Calm 10 Clear CLR 39 17     41%     30.09 29.66      
May 12 01:53 SSE 9 10 Clear CLR 49 13     23% 45   30.02 29.5      
May 12 00:53 SSE 7 10 Clear CLR 49 14     24% 46   30.03 29.52      
May 11 15:53 WSW 16 10 Clear CLR 58 16     19%     29.94 29.49      
May 11 10:53 SW 16 10 Mostly Clear FEW095 55 14     19%     30.01 29.5      
May 11 06:53 3 10 Clear CLR 40 21     46% 38   30.01 29.54      
Jun 11 21:53 Calm 10 Clear   55        %     30.17 29.63      
Jun 11 16:53 SSW 14 10 Clear CLR 70        %     30.13 29.57      
Jun 10 17:53 SSW 15 10 Clear CLR 70 10     10%     30.08 29.53      
Jun 10 05:53 NNE 3 10 Clear CLR 46 20     35% 45   30.14 29.59      
Jun 08 14:53 WNW 17 10 Mostly Cloudy FEW090 BKN110 68 22     17%     30.34 29.86      
Jun 08 12:53 NNW 15 10 Clear CLR 68 18     15%     30.36 29.87      
Jun 07 18:53 5 10 Mostly Clear FEW120 58 28     32%       29.97      
Jun 07 14:53   10 Mostly Clear FEW110 64 27     24%       29.98 0 0  
Jun 07 08:53 Calm 10 Mostly Clear FEW100 50 39     66%     30.47 30.07      
Notice The following observation data may not be complete
Jun 06 13:36   8 Thunderstorms and Rain BKN075 BKN100          %         0    
Notice The following observation data may not be complete
Jun 06 11:53 E 8 10 Cloudy FEW065 BKN095 OVC110   38      %     30.46 30.07 0   0
Jun 06 03:53 ENE 6 10 Partly Cloudy SCT120 40 36     86% 36   30.45 29.97      
Jun 06 01:53 NE 8 10 Clear CLR 40 36     86% 34   30.45 30.04      
Jun 05 22:53 S 5 10 Mostly Cloudy BKN120 47 39     74% 45   30.45 29.94      
Jun 05 13:13   10 Mostly Cloudy FEW080 BKN120 57 32     39%     30.4